Location: La Brionne
(46.1728°N, 1.7849°E)
Time: 13:17:46
(UTC+00:00)

Cosmos 2219 Rocket - Pass Details

Date: 31 October 2021
Orbit: 826 x 848 km, 71.0° (Epoch: 01 December)

Event Time Altitude Azimuth Distance (km) Brightness Sun altitude
Rises 17:58:09 0° 197° (SSW) 3,353 5.6 -14.0°
Reaches altitude 10° 18:00:34 10° 196° (SSW) 2,426 4.9 -14.4°
Maximum altitude 18:06:06 71° 113° (ESE) 879 2.1 -15.4°
Drops below altitude 10° 18:11:42 10° 30° (NNE) 2,455 4.3 -16.4°
Enters shadow 18:12:38 - 29° (NNE) 2,814 4.6 -16.5°
